| time (UTC) | temp F | wind direction | speed knots | gust knots | rain 1hr in | rain 24hr in | rain mn in | humidity % | barometer mb |
| 20260506184641 | 57 | 61 | 2.6 | 5.2 | 0.00 | 0.00 | 0.00 | 37 | 1012.1 |
| 20260506183141 | 56 | 146 | 2.6 | 6.1 | 0.00 | 0.00 | 0.00 | 39 | 1011.9 |
| 20260506181641 | 55 | 68 | 2.6 | 7.0 | 0.00 | 0.00 | 0.00 | 43 | 1012.0 |
| 20260506180141 | 53 | 11 | 2.6 | 7.0 | 0.00 | 0.00 | 0.00 | 44 | 1012.5 |
| 20260506174641 | 53 | 26 | 2.6 | 7.8 | 0.00 | 0.00 | 0.00 | 44 | 1012.5 |
| 20260506173141 | 52 | 43 | 3.5 | 5.2 | 0.00 | 0.00 | 0.00 | 47 | 1012.8 |
| 20260506171641 | 52 | 45 | 2.6 | 5.2 | 0.00 | 0.00 | 0.00 | 47 | 1013.4 |
| 20260506170141 | 51 | 58 | 2.6 | 4.3 | 0.00 | 0.00 | 0.00 | 47 | 1013.3 |
| 20260506164641 | 51 | 17 | 2.6 | 6.1 | 0.00 | 0.00 | 0.00 | 49 | 1013.3 |
| 20260506163141 | 51 | 32 | 1.7 | 2.6 | 0.00 | 0.00 | 0.00 | 50 | 1013.4 |
| 20260506161641 | 49 | 47 | 3.5 | 11.3 | 0.00 | 0.00 | 0.00 | 50 | 1013.5 |
| 20260506160141 | 47 | 85 | 3.5 | 7.0 | 0.00 | 0.00 | 0.00 | 49 | 1013.7 |
| 20260506154641 | 46 | 85 | 2.6 | 4.3 | 0.00 | 0.00 | 0.00 | 52 | 1013.7 |
| 20260506153141 | 45 | 84 | 2.6 | 6.1 | 0.00 | 0.00 | 0.00 | 53 | 1013.9 |
| 20260506151641 | 47 | 74 | 0.9 | 5.2 | 0.00 | 0.00 | 0.00 | 53 | 1013.9 |
| 20260506150141 | 47 | 133 | 0.9 | 1.7 | 0.00 | 0.00 | 0.00 | 57 | 1013.8 |
| 20260506144641 | 46 | 100 | 1.7 | 4.3 | 0.00 | 0.00 | 0.00 | 50 | 1013.8 |
| 20260506143141 | 45 | 88 | 1.7 | 3.5 | 0.00 | 0.00 | 0.00 | 51 | 1013.9 |
| 20260506141641 | 45 | 79 | 0.9 | 2.6 | 0.00 | 0.00 | 0.00 | 53 | 1014.1 |
| 20260506140141 | 44 | 96 | 1.7 | 3.5 | 0.00 | 0.00 | 0.00 | 51 | 1014.1 |
| 20260506134642 | 43 | 69 | 1.7 | 3.5 | 0.00 | 0.00 | 0.00 | 51 | 1014.1 |
| 20260506133141 | 43 | 105 | 0.9 | 1.7 | 0.00 | 0.00 | 0.00 | 51 | 1014.0 |
| 20260506131641 | 43 | 107 | 0.9 | 1.7 | 0.00 | 0.00 | 0.00 | 48 | 1014.0 |
| 20260506130141 | 42 | 107 | 0.9 | 0.9 | 0.00 | 0.00 | 0.00 | 48 | 1014.1 |
| 20260506124641 | 41 | 107 | 2.6 | 6.1 | 0.00 | 0.00 | 0.00 | 49 | 1014.4 |
| 20260506123141 | 41 | 93 | 2.6 | 5.2 | 0.00 | 0.00 | 0.00 | 50 | 1014.3 |
| 20260506121641 | 41 | 108 | 0.9 | 4.3 | 0.00 | 0.00 | 0.00 | 49 | 1014.4 |
| 20260506120141 | 41 | 107 | 1.7 | 3.5 | 0.00 | 0.00 | 0.00 | 50 | 1014.0 |
| 20260506114641 | 41 | 117 | 1.7 | 2.6 | 0.00 | 0.00 | 0.00 | 49 | 1014.1 |
| 20260506113141 | 42 | 140 | 2.6 | 3.5 | 0.00 | 0.00 | 0.00 | 49 | 1014.2 |
| 20260506111642 | 42 | 140 | 2.6 | 6.1 | 0.00 | 0.00 | 0.00 | 49 | 1014.4 |
| 20260506110142 | 42 | 144 | 4.3 | 6.1 | 0.00 | 0.00 | 0.00 | 48 | 1014.4 |
| 20260506104642 | 42 | 139 | 4.3 | 8.7 | 0.00 | 0.00 | 0.00 | 47 | 1014.6 |
| 20260506103142 | 42 | 139 | 6.1 | 9.6 | 0.00 | 0.00 | 0.00 | 48 | 1014.5 |
| 20260506101642 | 42 | 138 | 7.0 | 7.8 | 0.00 | 0.00 | 0.00 | 47 | 1014.2 |
| 20260506100142 | 42 | 124 | 7.0 | 9.6 | 0.00 | 0.00 | 0.00 | 48 | 1014.2 |
| 20260506094642 | 42 | 139 | 7.0 | 9.6 | 0.00 | 0.00 | 0.00 | 48 | 1014.2 |
| 20260506093142 | 42 | 130 | 6.1 | 8.7 | 0.00 | 0.00 | 0.00 | 47 | 1014.3 |
| 20260506091642 | 42 | 148 | 4.3 | 8.7 | 0.00 | 0.00 | 0.00 | 47 | 1014.3 |
| 20260506090142 | 42 | 185 | 3.5 | 7.8 | 0.00 | 0.00 | 0.00 | 48 | 1014.3 |
| 20260506084642 | 42 | 142 | 9.6 | 13.9 | 0.00 | 0.00 | 0.00 | 48 | 1014.5 |
| 20260506083142 | 43 | 142 | 11.3 | 15.6 | 0.00 | 0.00 | 0.00 | 47 | 1014.5 |
| 20260506081642 | 43 | 140 | 11.3 | 15.6 | 0.00 | 0.00 | 0.00 | 46 | 1014.4 |
| 20260506080142 | 43 | 135 | 12.2 | 15.6 | 0.00 | 0.00 | 0.00 | 46 | 1014.1 |
| 20260506073143 | 43 | 144 | 10.4 | 13.9 | 0.00 | 0.00 | 0.00 | 48 | 1014.4 |
| 20260506071642 | 42 | 140 | 11.3 | 13.9 | 0.00 | 0.00 | 0.00 | 49 | 1014.4 |
| 20260506070142 | 43 | 140 | 9.6 | 11.3 | 0.00 | 0.00 | 0.00 | 49 | 1014.5 |
| 20260506061642 | 43 | 147 | 12.2 | 15.6 | 0.00 | 0.00 | 0.00 | 48 | 1014.3 |
| 20260506060142 | 44 | 126 | 10.4 | 13.9 | 0.00 | 0.00 | 0.00 | 48 | 1014.1 |
| 20260506050142 | 45 | 131 | 13.9 | 19.1 | 0.00 | 0.00 | 0.00 | 46 | 1014.5 |
| 20260506044642 | 45 | 153 | 13.9 | 18.2 | 0.00 | 0.00 | 0.00 | 46 | 1014.4 |
| 20260506043142 | 45 | 132 | 13.0 | 17.4 | 0.00 | 0.00 | 0.00 | 47 | 1014.3 |
| 20260506041642 | 45 | 111 | 13.9 | 23.5 | 0.00 | 0.00 | 0.00 | 47 | 1014.0 |
| 20260506040142 | 46 | 122 | 13.0 | 19.1 | 0.00 | 0.00 | 0.00 | 47 | 1013.9 |
| 20260506034642 | 46 | 95 | 13.0 | 20.0 | 0.00 | 0.00 | 0.00 | 46 | 1013.7 |
| 20260506033142 | 46 | 125 | 13.0 | 18.2 | 0.00 | 0.00 | 0.00 | 45 | 1013.4 |
| 20260506031642 | 47 | 111 | 13.0 | 19.1 | 0.00 | 0.00 | 0.00 | 45 | 1013.0 |
| 20260506030142 | 47 | 121 | 11.3 | 18.2 | 0.00 | 0.00 | 0.00 | 44 | 1013.1 |
| 20260506024642 | 48 | 101 | 12.2 | 20.0 | 0.00 | 0.00 | 0.00 | 43 | 1013.0 |
| 20260506023142 | 49 | 122 | 10.4 | 16.5 | 0.00 | 0.00 | 0.00 | 41 | 1012.6 |
| 20260506021642 | 50 | 107 | 8.7 | 19.1 | 0.00 | 0.00 | 0.00 | 41 | 1012.4 |
| 20260506020142 | 50 | 70 | 9.6 | 13.9 | 0.00 | 0.00 | 0.00 | 40 | 1012.4 |
| 20260506014642 | 51 | 81 | 9.6 | 15.6 | 0.00 | 0.00 | 0.00 | 40 | 1012.5 |
| 20260506013142 | 51 | 96 | 8.7 | 16.5 | 0.00 | 0.00 | 0.00 | 39 | 1012.6 |
| 20260506011642 | 52 | 80 | 7.8 | 13.0 | 0.00 | 0.00 | 0.00 | 37 | 1012.2 |
| 20260506010143 | 53 | 69 | 6.1 | 11.3 | 0.00 | 0.00 | 0.00 | 37 | 1012.3 |
| 20260506004643 | 53 | 73 | 7.0 | 12.2 | 0.00 | 0.00 | 0.00 | 36 | 1012.3 |
| 20260506003143 | 53 | 66 | 7.8 | 12.2 | 0.00 | 0.00 | 0.00 | 36 | 1012.6 |
| 20260506001643 | 54 | 132 | 7.8 | 13.0 | 0.00 | 0.00 | 0.00 | 35 | 1012.4 |
| 20260506000143 | 55 | 74 | 3.5 | 9.6 | 0.00 | 0.00 | 0.00 | 34 | 1012.4 |
| 20260505234643 | 55 | 80 | 5.2 | 8.7 | 0.00 | 0.00 | 0.00 | 35 | 1012.8 |
| 20260505233143 | 55 | 83 | 6.1 | 13.0 | 0.00 | 0.00 | 0.00 | 33 | 1012.5 |
| 20260505231643 | 56 | 108 | 3.5 | 10.4 | 0.00 | 0.00 | 0.00 | 32 | 1012.5 |
| 20260505230143 | 56 | 145 | 1.7 | 5.2 | 0.00 | 0.00 | 0.00 | 33 | 1013.0 |
| 20260505224643 | 55 | 321 | 3.5 | 4.3 | 0.00 | 0.00 | 0.00 | 34 | 1013.0 |
| 20260505223143 | 55 | 355 | 2.6 | 7.8 | 0.00 | 0.00 | 0.00 | 33 | 1013.0 |
| 20260505221643 | 55 | 57 | 3.5 | 7.0 | 0.00 | 0.00 | 0.00 | 33 | 1013.2 |
| 20260505220143 | 55 | 47 | 3.5 | 7.0 | 0.00 | 0.00 | 0.00 | 35 | 1013.3 |
| 20260505214643 | 54 | 92 | 4.3 | 8.7 | 0.00 | 0.00 | 0.00 | 33 | 1013.7 |
| 20260505213143 | 54 | 80 | 3.5 | 7.0 | 0.00 | 0.00 | 0.00 | 34 | 1013.6 |
| 20260505211643 | 54 | 38 | 5.2 | 11.3 | 0.00 | 0.00 | 0.00 | 34 | 1013.7 |
| 20260505210143 | 53 | 51 | 6.1 | 10.4 | 0.00 | 0.00 | 0.00 | 35 | 1014.1 |
| 20260505204643 | 53 | 92 | 4.3 | 8.7 | 0.00 | 0.00 | 0.00 | 37 | 1013.9 |
| 20260505203143 | 53 | 55 | 6.1 | 14.8 | 0.00 | 0.00 | 0.00 | 36 | 1014.0 |
| 20260505201643 | 54 | 63 | 6.1 | 11.3 | 0.00 | 0.00 | 0.00 | 35 | 1014.1 |
| 20260505200143 | 54 | 126 | 3.5 | 7.0 | 0.00 | 0.00 | 0.00 | 32 | 1013.9 |
| 20260505194643 | 54 | 345 | 2.6 | 4.3 | 0.00 | 0.00 | 0.00 | 33 | 1014.1 |
| 20260505193143 | 53 | 327 | 3.5 | 9.6 | 0.00 | 0.00 | 0.00 | 32 | 1014.4 |
| 20260505191643 | 53 | 289 | 3.5 | 8.7 | 0.00 | 0.00 | 0.00 | 33 | 1014.1 |
| 20260505190143 | 52 | 349 | 4.3 | 7.8 | 0.00 | 0.00 | 0.00 | 33 | 1014.3 |